Change the Weather History Date:

Tuesday, April 24, 2012

  Actual Average Record
Temperature  
Mean Temperature 61 °F 68 °F  
Max Temperature 72 °F 77 °F 93 °F (1999)
Min Temperature 49 °F 60 °F 47 °F (1986)
Degree Days  
Heating Degree Days 4 1  
Month to date heating degree days 18 51  
Since 1 July heating degree days 864 1479  
Cooling Degree Days 0 5  
Month to date cooling degree days 134 72  
Year to date cooling degree days 301 112  
Growing Degree Days 10 (Base 50)    
Moisture  
Dew Point 34 °F    
Average Humidity 40    
Maximum Humidity 56    
Minimum Humidity 24    
Precipitation  
Precipitation 0.00 in 0.07 in 1.43 in (2000)
Month to date precipitation 0.53 2.10  
Year to date precipitation 7.20 12.67  
Snow  
Snow 0.00 in - 0.00 in ()
Month to date snowfall 0.0  
Since 1 July snowfall 0.0  
Snow Depth 0.00 in    
Sea Level Pressure  
Sea Level Pressure 29.93 in    
Wind  
Wind Speed 10 mph (West)    
Max Wind Speed 20 mph    
Max Gust Speed 32 mph    
Visibility 10 miles    
Events      
T = Trace of Precipitation, MM = Missing Value Source: NWS Daily Summary

Daily Weather History Graph

Daily Weather History Graph

Search for Another Location

Airport or City:

Trip Planner

Search our weather history database for the weather conditions in past years. The results will help you decide how hot, cold, wet, or windy it might be!

Date:

Astronomy

Apr. 24, 2012 Rise Set
Actual Time 6:47 AM EDT 8:00 PM EDT
Civil Twilight 6:22 AM EDT 8:25 PM EDT
Nautical Twilight 5:51 AM EDT 8:55 PM EDT
Astronomical Twilight 5:20 AM EDT 9:27 PM EDT
Moon 8:51 AM EDT (4/24) 11:09 PM EDT (4/24)
Length of Visible Light 14h 03m
Length of Day
13h 13m
Waxing Crescent, 10% of the Moon is Illuminated
Apr 24
Waxing Crescent
Apr 29
First Quarter
May 5
Full
May 12
Last Quarter
May 20
New

Hourly Weather History & Observations

Time (EDT) Temp. Dew Point Humidity Pressure Visibility Wind Dir Wind Speed Gust Speed Precip Events Conditions
12:53 AM 55.9 °F 33.1 °F 42% 29.89 in 10.0 mi WNW 6.9 mph - N/A   Clear
1:53 AM 54.0 °F 34.0 °F 47% 29.89 in 10.0 mi WNW 5.8 mph - N/A   Clear
2:53 AM 53.1 °F 35.1 °F 50% 29.88 in 10.0 mi West 8.1 mph - N/A   Clear
3:53 AM 52.0 °F 33.1 °F 49% 29.89 in 10.0 mi West 6.9 mph - N/A   Clear
4:53 AM 51.8 °F 33.8 °F 50% 29.90 in 10.0 mi West 8.1 mph - N/A   Clear
5:53 AM 50.0 °F 33.1 °F 52% 29.91 in 10.0 mi West 8.1 mph - N/A   Clear
6:53 AM 48.9 °F 33.1 °F 54% 29.93 in 10.0 mi Variable 6.9 mph - N/A   Clear
7:53 AM 51.1 °F 33.1 °F 50% 29.96 in 10.0 mi West 8.1 mph - N/A   Clear
8:53 AM 55.0 °F 33.1 °F 43% 29.97 in 10.0 mi West 10.4 mph - N/A   Clear
9:53 AM 59.0 °F 33.1 °F 38% 29.98 in 10.0 mi NW 8.1 mph 17.3 mph N/A   Clear
10:53 AM 63.0 °F 30.0 °F 29% 29.98 in 10.0 mi West 15.0 mph 26.5 mph N/A   Clear
11:53 AM 66.0 °F 28.9 °F 25% 29.97 in 10.0 mi NW 8.1 mph 24.2 mph N/A   Clear
12:53 PM 66.9 °F 28.9 °F 24% 29.95 in 10.0 mi NW 13.8 mph 23.0 mph N/A   Clear
1:53 PM 70.0 °F 33.1 °F 26% 29.93 in 10.0 mi WNW 15.0 mph 23.0 mph N/A   Partly Cloudy
2:53 PM 70.0 °F 33.1 °F 26% 29.92 in 10.0 mi West 13.8 mph 21.9 mph N/A   Clear
3:53 PM 70.0 °F 33.1 °F 26% 29.90 in 10.0 mi West 12.7 mph 25.3 mph N/A   Clear
4:53 PM 72.0 °F 34.0 °F 25% 29.89 in 10.0 mi West 11.5 mph 27.6 mph N/A   Clear
5:53 PM 71.1 °F 33.1 °F 25% 29.90 in 10.0 mi WNW 16.1 mph 24.2 mph N/A   Clear
6:53 PM 71.1 °F 34.0 °F 26% 29.90 in 10.0 mi West 9.2 mph 20.7 mph N/A   Partly Cloudy
7:53 PM 68.0 °F 37.0 °F 32% 29.91 in 10.0 mi WSW 8.1 mph - N/A   Clear
8:53 PM 64.9 °F 41.0 °F 42% 29.94 in 10.0 mi WSW 5.8 mph - N/A   Clear
9:53 PM 64.0 °F 41.0 °F 43% 29.95 in 10.0 mi West 5.8 mph - N/A   Clear
10:53 PM 63.0 °F 42.1 °F 46% 29.96 in 10.0 mi WSW 5.8 mph - N/A   Clear
11:53 PM 61.0 °F 43.0 °F 52% 29.98 in 10.0 mi WSW 8.1 mph - N/A   Clear